Location: Godiavel Galaoual
(15.2485°N, 12.6604°W)
Time: 13:31:22
(UTC+00:00)

LightSail 2 - Pass Details

Date: 10 June 2020
Orbit: 691 x 722 km, 24.0° (Epoch: 06 July)

Event Time Altitude Azimuth Distance (km) Brightness Sun altitude
Exits shadow 05:20:48 20° 232° (SW) 1,623 6.4 -13.6°
Maximum altitude 05:22:23 23° 206° (SSW) 1,498 6.4 -13.2°
Drops below altitude 10° 05:26:24 10° 155° (SSE) 2,185 7.6 -12.4°
Sets 05:29:18 0° 140° (SE) 3,109 8.6 -11.8°
